Temperature
19 19 19 19 19 19 19 19 19 19 18 18 18 18 18 18 18 18 18 18 17 17 17 17 17 17 17 18 18 18 18 18 17 18 18 18 18 18 18 17 17 17 17
19 19 18 19 19 19 19 18 18 18 18 18 18 18 18 18 18 18 18 17 17 17 17 17 17 17 17 17 17 17 17 17 17 17 17 17 17 17 17 17 17 17 17
19 18 18 18 18 18 18 18 18 18 18 18 17 18 18 18 18 17 17 17 17 17 17 17 17 17 17 17 17 17 17 17 17 17 17 17 17 17 16 16 16 16 16
19 18 18 18 18 18 18 17 17 17 17 17 17 17 17 17 17 17 17 17 17 17 16 16 17 17 17 17 17 17 17 16 16 16 16 16 16 16 16 16 16 16 16
18 18 18 18 18 17 17 17 17 17 17 17 17 17 17 17 17 17 16 16 16 16 16 16 16 16 16 16 16 16 16 16 16 16 16 16 16 16 16 16 15 15 15
18 18 18 17 17 17 17 17 17 17 17 17 17 17 16 16 16 16 16 16 16 16 16 16 16 16 16 16 16 16 16 16 16 15 15 15 15 15 15 15 15 15 15
18 18 17 17 17 17 17 16 16 16 16 16 16 16 16 16 16 16 16 16 16 16 16 16 15 16 16 16 16 16 16 15 15 15 15 15 15 15 15 15 15 14 14
17 17 17 17 16 16 16 16 16 16 16 16 16 16 15 15 15 15 16 15 15 15 15 15 15 15 15 15 15 15 15 15 15 15 15 15 15 15 15 14 14 14 14
17 17 17 16 16 16 16 16 16 16 16 15 15 15 15 15 15 15 15 15 15 15 15 15 15 15 15 15 15 15 15 15 14 14 14 14 14 14 14 14 14 14 14
16 16 16 16 16 16 15 15 15 15 15 15 15 15 15 15 15 15 15 15 15 15 15 15 15 15 15 15 15 14 14 14 14 14 14 14 14 14 14 14 13 13 13
16 16 16 16 16 15 15 15 15 15 15 15 15 15 15 15 15 15 15 15 15 14 14 14 14 14 14 14 14 14 14 14 13 13 13 13 13 14 13 13 13 13 13
16 16 16 15 15 15 15 15 15 15 15 15 15 15 15 15 15 15 15 15 14 14 14 14 14 14 14 14 14 14 14 13 13 13 13 13 13 13 13 13 13 13 13
15 15 15 15 15 15 15 15 15 15 14 14 15 15 15 15 15 15 15 15 14 14 14 14 13 13 13 13 13 13 13 13 13 13 13 13 13 13 13 13 13 12 12
15 15 15 15 15 14 14 14 14 14 14 14 14 14 14 14 14 14 14 14 14 14 13 13 13 13 13 13 13 13 13 12 12 12 12 12 12 12 12 12 12 12 12
15 15 14 14 14 14 14 14 14 14 14 14 14 14 14 14 14 14 13 13 13 13 13 13 13 12 12 12 12 12 12 12 12 12 12 12 12 12 12 12 12 12 12
14 14 14 14 14 14 14 14 14 14 14 14 14 14 13 13 14 13 13 13 13 13 12 12 12 12 11 11 11 11 12 11 11 11 11 11 11 11 11 11 11 11 11
14 14 14 14 14 14 14 14 14 14 13 13 13 13 13 13 13 13 13 12 12 12 12 12 11 11 11 11 11 11 11 11 11 11 11 11 11 11 11 11 11 11 11
14 14 14 14 13 13 13 13 13 13 13 13 13 13 13 13 12 12 12 12 12 11 11 11 11 11 11 10 10 11 11 11 11 11 10 10 10 10 11 11 11 11 11
13 13 13 13 13 13 13 13 13 13 13 13 12 12 12 12 12 12 12 12 11 11 11 11 10 10 10 10 10 10 10 10 10 10 10 10 10 10 10 10 10 10 10
13 13 13 13 13 13 13 13 13 13 13 13 12 12 12 12 12 12 11 11 11 11 11 10 10 10 10 10 10 10 10 10 10 9 9 9 9 9 9 9 9 9 9
13 13 13 13 13 13 13 12 12 13 12 12 12 12 12 11 11 11 11 11 11 10 10 10 10 10 10 9 9 9 9 9 9 9 9 9 9 9 9 9 9 9 9
13 13 13 13 13 13 12 12 12 12 12 12 12 11 11 11 11 11 10 10 10 10 10 10 9 9 9 9 9 9 9 9 9 9 9 9 8 8 8 9 9 9 8
12 13 13 12 12 12 12 12 12 12 12 11 11 11 11 10 10 10 10 10 9 9 9 9 9 9 9 9 9 8 8 8 8 8 8 8 8 8 8 8 8 8 8
12 12 12 12 12 12 12 12 12 11 11 11 11 10 10 10 10 10 9 9 9 9 9 9 9 8 8 8 8 8 8 8 8 8 8 8 8 8 8 8 8 8 8
12 12 12 12 12 12 12 11 11 11 11 11 10 10 10 10 9 9 9 9 9 9 8 8 8 8 8 8 8 8 8 8 8 8 8 8 7 7 7 7 7 7 7
12 12 12 12 11 11 11 11 11 11 10 10 10 10 9 9 9 9 9 9 8 8 8 8 8 8 8 7 7 7 7 7 7 7 7 7 7 7 7 7 7 7 7
Wind_Speed
6 5 4 4 4 3 2 2 2 2 1 2 2 2 2 2 3 3 4 4 4 4 4 4 5 4 4 4 3 3 4 3 5 4 2 2 2 3 2 4 7 8 9
6 5 4 4 3 3 3 3 2 2 2 2 2 2 3 3 2 3 4 3 3 4 4 4 5 5 5 4 3 4 4 4 4 5 4 3 4 3 4 5 6 6 6
6 5 4 4 3 3 3 3 3 3 2 3 2 2 3 3 3 3 4 4 4 4 4 4 5 5 5 4 4 4 4 4 3 5 5 4 3 3 4 5 5 3 6
4 4 4 4 3 3 3 3 3 3 3 3 2 3 3 3 3 3 3 4 4 4 4 4 4 5 5 5 5 4 4 3 3 4 5 4 2 2 2 3 4 3 4
3 3 3 2 2 2 3 3 3 3 4 3 3 4 4 4 4 3 3 4 4 4 4 4 4 3 3 4 4 3 3 3 4 4 4 3 2 2 2 3 4 4 4
2 2 2 2 2 2 2 3 3 3 3 3 4 4 4 5 3 3 3 4 3 4 4 4 5 5 4 4 5 4 4 5 4 4 3 3 3 3 3 4 3 3 3
1 1 1 1 2 2 3 2 3 3 3 3 3 3 4 4 3 2 3 4 4 4 5 5 6 4 2 2 3 4 4 5 5 4 4 4 4 3 4 5 4 4 5
1 1 0 1 1 2 2 2 2 2 3 3 4 4 3 4 3 3 4 4 5 5 5 6 5 3 2 1 3 3 4 4 4 4 4 4 4 3 4 5 5 5 4
0 0 0 1 1 2 2 2 2 3 3 4 4 4 3 3 4 4 4 4 4 5 5 5 5 3 2 1 2 3 4 3 2 3 4 4 4 4 3 3 3 3 3
1 1 0 1 2 2 2 2 2 3 4 4 3 3 4 3 4 5 4 4 4 4 4 3 4 3 3 3 3 3 4 4 4 3 3 4 5 5 4 4 3 3 3
1 1 1 1 2 1 1 1 2 2 3 3 3 3 3 3 3 4 5 4 4 4 3 2 2 3 4 4 3 3 4 4 4 4 4 4 3 3 3 3 3 3 3
1 1 1 1 2 1 1 1 1 2 3 3 3 3 1 1 1 1 2 4 5 4 3 2 1 4 5 4 3 4 4 3 4 4 4 3 2 2 3 3 4 4 4
1 1 1 1 1 2 1 1 1 2 2 3 3 3 2 1 0 0 2 4 5 3 3 2 2 4 4 4 5 5 3 3 4 4 3 3 3 3 3 2 2 2 3
2 1 1 1 1 1 2 2 1 2 2 3 4 4 3 2 2 2 2 2 3 2 2 2 2 4 3 4 3 3 3 4 4 4 3 3 2 2 1 1 1 2 2
2 2 2 1 1 1 1 1 1 1 1 1 2 3 3 3 3 2 2 2 2 2 2 1 1 2 2 2 2 2 2 3 3 3 3 3 2 2 2 1 2 2 2
2 2 2 2 1 2 1 1 2 1 2 2 1 1 2 1 2 2 3 3 2 1 0 1 1 2 2 3 2 3 2 2 2 2 2 2 2 2 3 2 2 2 3
3 3 2 2 2 2 2 2 1 0 1 1 0 1 1 2 3 3 3 3 2 1 1 1 1 2 2 2 2 2 2 2 2 2 2 2 2 2 2 2 2 2 2
4 3 3 3 3 2 2 3 2 2 2 2 2 3 2 3 3 2 1 2 1 1 1 1 2 2 2 2 2 2 2 2 1 1 1 1 1 1 1 1 1 2 2
4 3 3 4 4 3 3 3 3 3 3 2 1 1 2 3 3 2 1 1 1 1 1 1 2 2 2 2 2 2 2 2 2 2 1 0 1 1 2 2 1 1 1
3 5 5 5 4 3 3 3 3 3 3 2 1 1 1 1 1 1 2 2 2 1 1 1 1 1 1 2 2 2 2 2 2 2 1 1 1 1 2 1 1 1 1
4 4 6 5 4 2 3 4 4 3 2 2 1 1 2 2 2 1 1 1 1 0 1 1 1 1 1 1 1 2 2 2 2 2 2 1 2 2 1 1 1 1 2
4 4 2 2 2 2 3 3 3 3 2 2 1 1 4 2 1 0 1 1 1 0 1 1 2 2 2 2 2 2 2 2 2 2 2 2 1 2 2 2 1 1 1
5 4 3 2 2 2 3 3 2 2 1 1 1 1 1 1 1 0 1 1 1 1 1 1 2 3 3 3 4 3 3 2 2 3 3 2 2 2 2 2 2 2 2
4 4 3 3 2 2 2 2 1 1 1 0 0 1 1 0 1 1 1 1 1 2 2 2 2 3 4 4 4 4 5 5 4 3 3 2 2 2 2 2 2 3 2
5 4 3 3 2 2 2 1 1 1 0 0 1 1 1 1 1 2 2 2 2 2 2 3 3 3 4 5 5 6 7 8 7 4 3 2 2 2 2 2 2 3 3
4 3 3 2 2 2 1 1 0 0 0 0 1 1 1 1 1 2 2 2 2 3 3 3 4 4 4 4 6 7 7 6 6 5 3 2 2 2 2 2 3 3 3
Wind_Direction
178 181 181 183 196 204 223 238 235 249 252 238 237 239 243 249 253 252 259 254 243 240 243 234 235 242 255 261 252 242 242 242 253 267 261 259 250 239 225 232 235 219 221
176 178 183 185 193 201 218 227 229 235 247 248 245 250 257 256 255 258 264 265 258 252 249 249 251 248 250 260 262 257 250 240 247 263 264 262 253 240 232 241 245 235 229
173 178 179 192 199 207 217 223 226 231 241 252 244 249 260 262 253 252 254 262 261 260 253 247 252 256 257 257 254 259 261 260 245 252 258 251 249 244 246 256 258 246 252
165 175 177 193 208 215 220 225 224 228 232 237 248 250 254 259 255 247 249 258 259 262 260 257 256 255 254 258 256 257 262 267 260 258 260 260 246 241 238 261 270 260 260
153 168 171 191 205 221 228 233 233 232 239 237 245 249 250 249 255 257 253 256 261 265 266 262 262 253 249 253 258 263 262 259 260 260 263 269 265 265 253 262 268 269 265
146 158 164 196 211 223 239 240 239 243 247 240 243 252 256 259 260 264 273 272 271 269 270 267 262 249 238 234 240 244 249 250 253 258 264 264 271 264 258 261 264 272 268
156 166 165 206 224 237 251 254 250 247 245 249 252 255 260 263 257 253 263 268 265 261 260 261 269 262 254 248 239 237 250 256 250 250 262 267 270 272 266 264 259 261 263
186 172 144 237 237 243 253 258 258 256 252 254 255 254 256 264 245 243 251 254 259 262 259 255 251 243 250 280 278 261 257 257 251 248 250 261 273 272 260 256 258 258 262
231 215 130 283 264 260 261 262 267 262 256 252 256 254 255 259 248 246 248 264 260 259 255 250 237 225 202 220 250 265 271 275 266 254 248 242 247 255 264 276 275 269 274
316 324 318 293 276 267 265 263 266 262 268 269 262 261 257 249 240 239 244 267 271 268 248 238 233 199 190 214 231 251 261 269 278 278 263 250 245 243 236 228 243 261 278
335 333 326 294 271 265 294 301 291 286 284 280 274 265 254 250 240 234 233 259 280 285 274 250 224 180 188 210 238 252 256 271 270 261 256 249 240 232 224 211 214 221 250
6 4 8 349 312 352 6 331 333 314 301 291 283 286 281 267 272 231 232 264 291 291 285 284 253 214 214 220 231 255 260 277 269 262 258 254 249 242 228 219 209 212 219
360 359 2 353 342 349 336 335 337 330 318 312 305 296 304 320 14 169 229 271 283 283 295 293 251 228 226 228 240 246 249 256 256 256 258 260 256 243 222 220 214 219 234
328 328 308 309 323 346 326 339 351 357 346 339 335 326 327 351 13 355 316 288 293 289 306 303 246 218 228 245 240 235 242 252 257 255 254 253 255 257 223 199 208 225 247
286 285 281 277 281 294 306 338 335 47 52 331 334 330 332 334 331 309 294 311 307 292 296 262 269 252 242 248 254 257 253 251 253 259 264 265 260 256 255 240 222 226 228
282 282 282 275 264 245 240 255 50 88 113 84 24 316 333 327 323 328 331 334 330 335 76 267 282 281 278 265 258 261 258 254 256 250 250 253 253 254 256 252 240 231 236
279 276 282 285 272 267 267 270 265 254 176 180 202 301 294 311 321 319 342 350 342 64 58 289 282 278 284 293 292 281 275 260 245 248 251 256 259 259 257 258 249 248 247
274 266 266 272 278 273 267 263 265 266 261 249 222 220 241 256 268 280 336 23 1 40 294 295 309 311 305 302 317 330 326 336 335 300 267 259 267 267 264 272 270 258 257
269 273 271 274 266 259 268 267 264 266 267 261 217 190 233 241 244 257 200 234 270 283 280 285 296 308 325 337 347 346 342 348 341 323 311 299 304 302 297 286 279 286 270
258 253 259 264 266 263 270 277 275 267 269 258 221 167 160 242 251 207 195 220 247 257 270 294 322 340 347 347 338 336 335 330 324 327 339 353 327 301 283 280 294 293 278
268 251 236 248 260 281 302 297 290 286 291 304 293 150 165 219 246 242 223 221 240 316 15 1 354 341 339 340 344 332 328 334 349 360 3 359 334 315 292 284 289 295 303
282 280 268 264 248 241 264 275 289 292 306 319 306 184 179 212 232 182 68 15 317 312 25 9 356 3 5 5 8 360 352 352 3 360 341 327 322 323 330 318 307 307 306
276 278 278 276 272 226 235 253 268 285 323 336 353 45 89 314 314 63 81 62 33 34 52 41 14 17 33 31 31 27 16 11 354 348 336 326 323 318 321 330 322 311 309
278 279 279 278 281 262 253 258 258 274 296 318 46 54 59 18 348 17 64 88 83 58 52 42 40 39 34 35 37 39 37 21 3 349 341 339 334 341 351 351 333 324 323
279 286 284 286 287 288 280 269 243 235 253 150 107 89 45 34 27 15 36 65 67 60 50 41 44 43 35 38 40 39 33 24 16 6 340 326 334 343 344 334 329 330 330
294 296 292 293 292 294 294 284 263 88 76 96 84 72 63 42 30 39 40 44 54 49 43 45 42 38 41 50 49 47 41 21 3 356 348 318 310 320 318 309 316 320 321
Height
1508 1509 1511 1511 1512 1513 1514 1515 1515 1516 1516 1517 1517 1518 1519 1519 1519 1520 1520 1520 1520 1520 1521 1521 1521 1522 1522 1522 1522 1523 1523 1524 1523 1522 1522 1522 1522 1522 1521 1520 1520 1519 1519
1507 1508 1509 1510 1510 1511 1511 1512 1513 1513 1514 1514 1514 1515 1516 1516 1516 1516 1517 1517 1517 1517 1517 1518 1518 1518 1518 1518 1518 1518 1519 1519 1519 1518 1517 1518 1518 1517 1517 1516 1516 1515 1515
1505 1506 1507 1508 1508 1509 1509 1509 1510 1510 1511 1512 1512 1512 1512 1513 1513 1513 1514 1513 1513 1514 1514 1514 1514 1514 1514 1514 1514 1515 1515 1515 1515 1515 1513 1514 1513 1513 1512 1512 1511 1511 1510
1504 1504 1505 1505 1506 1506 1507 1507 1507 1507 1508 1508 1508 1509 1509 1509 1509 1510 1510 1510 1510 1510 1510 1510 1510 1510 1510 1510 1511 1511 1511 1511 1511 1510 1510 1509 1509 1508 1508 1507 1506 1506 1505
1502 1503 1503 1504 1504 1504 1504 1504 1504 1505 1505 1505 1505 1505 1506 1506 1506 1506 1506 1506 1506 1506 1506 1506 1506 1506 1506 1506 1507 1507 1507 1507 1507 1506 1505 1505 1504 1504 1503 1503 1502 1501 1501
1500 1501 1501 1501 1502 1502 1502 1502 1502 1502 1502 1502 1502 1502 1502 1502 1502 1502 1502 1502 1502 1501 1501 1501 1502 1502 1501 1502 1502 1502 1503 1503 1502 1502 1501 1500 1500 1500 1499 1499 1498 1497 1496
1498 1499 1499 1500 1500 1500 1500 1500 1499 1499 1499 1499 1499 1499 1498 1498 1498 1498 1498 1498 1497 1497 1497 1497 1497 1498 1497 1498 1498 1498 1498 1498 1499 1498 1497 1496 1496 1495 1495 1495 1494 1493 1492
1497 1497 1497 1497 1498 1497 1497 1497 1496 1496 1496 1495 1496 1495 1495 1495 1495 1495 1494 1494 1493 1493 1493 1493 1493 1493 1493 1493 1493 1493 1493 1493 1494 1494 1493 1492 1492 1491 1491 1491 1490 1489 1489
1495 1495 1495 1495 1495 1495 1494 1494 1494 1493 1493 1493 1492 1492 1491 1491 1491 1491 1491 1490 1489 1489 1489 1489 1489 1489 1489 1489 1489 1489 1489 1489 1489 1489 1489 1488 1488 1487 1487 1487 1486 1485 1485
1493 1493 1493 1493 1493 1492 1492 1491 1491 1491 1490 1490 1489 1489 1488 1488 1488 1487 1487 1486 1485 1485 1485 1485 1485 1485 1485 1485 1485 1484 1484 1484 1484 1484 1484 1484 1483 1483 1483 1483 1482 1482 1481
1492 1491 1491 1491 1491 1490 1490 1489 1489 1488 1488 1487 1486 1486 1485 1485 1484 1484 1484 1483 1482 1482 1482 1481 1481 1481 1481 1481 1481 1480 1480 1480 1480 1480 1479 1479 1479 1479 1479 1479 1478 1478 1478
1489 1489 1488 1488 1488 1488 1487 1487 1486 1486 1486 1485 1484 1483 1483 1482 1481 1480 1480 1480 1479 1478 1478 1478 1478 1477 1477 1477 1476 1476 1476 1476 1476 1476 1476 1475 1475 1475 1475 1475 1475 1475 1475
1486 1486 1486 1486 1486 1486 1485 1485 1484 1484 1484 1483 1482 1481 1480 1479 1478 1477 1477 1476 1475 1475 1474 1474 1474 1474 1473 1473 1473 1472 1472 1471 1471 1471 1471 1471 1471 1472 1472 1472 1472 1472 1471
1484 1484 1484 1483 1483 1483 1483 1483 1483 1482 1482 1481 1480 1479 1478 1477 1475 1474 1473 1472 1471 1471 1470 1470 1470 1470 1470 1469 1469 1468 1467 1467 1467 1467 1467 1467 1468 1468 1468 1468 1468 1468 1468
1482 1481 1481 1481 1481 1481 1481 1481 1480 1480 1479 1479 1478 1477 1476 1474 1473 1472 1470 1469 1468 1468 1467 1467 1466 1466 1465 1465 1465 1464 1463 1463 1463 1463 1463 1463 1464 1464 1464 1464 1465 1464 1464
1479 1479 1479 1479 1479 1479 1479 1479 1478 1478 1477 1476 1476 1475 1473 1473 1471 1469 1468 1467 1466 1465 1465 1464 1463 1463 1463 1462 1461 1461 1460 1459 1459 1459 1459 1459 1460 1460 1460 1460 1461 1461 1461
1477 1477 1477 1477 1477 1477 1476 1476 1475 1475 1474 1473 1472 1472 1471 1470 1469 1467 1466 1465 1464 1463 1462 1462 1461 1461 1460 1459 1459 1458 1457 1456 1456 1456 1456 1456 1456 1457 1457 1457 1457 1458 1458
1475 1475 1475 1475 1474 1474 1474 1473 1473 1472 1471 1470 1470 1469 1468 1467 1467 1465 1464 1463 1462 1461 1461 1460 1460 1459 1458 1457 1456 1455 1454 1454 1453 1453 1453 1454 1454 1454 1454 1454 1454 1454 1454
1472 1472 1472 1471 1472 1471 1471 1471 1470 1470 1469 1468 1466 1466 1466 1465 1465 1464 1462 1461 1460 1460 1460 1459 1458 1457 1456 1454 1453 1452 1452 1451 1451 1450 1450 1451 1451 1451 1451 1452 1452 1452 1452
1469 1469 1469 1469 1469 1469 1468 1468 1467 1467 1466 1466 1464 1464 1463 1463 1462 1461 1460 1459 1459 1459 1458 1458 1457 1456 1455 1454 1452 1451 1451 1450 1449 1449 1448 1449 1449 1449 1449 1450 1450 1450 1449
1466 1466 1465 1466 1466 1465 1465 1465 1464 1464 1463 1463 1462 1461 1461 1460 1459 1458 1458 1457 1457 1457 1456 1456 1455 1455 1454 1452 1451 1450 1449 1448 1448 1448 1447 1447 1447 1448 1448 1448 1448 1447 1447
1464 1463 1463 1462 1462 1462 1462 1462 1462 1462 1461 1460 1460 1459 1458 1458 1457 1457 1456 1456 1456 1455 1455 1454 1454 1453 1452 1451 1450 1449 1448 1447 1447 1446 1446 1446 1446 1446 1446 1446 1446 1445 1445
1462 1461 1461 1460 1459 1459 1459 1459 1459 1459 1458 1458 1458 1457 1457 1456 1456 1455 1455 1454 1454 1453 1453 1453 1452 1451 1450 1449 1448 1447 1447 1446 1445 1445 1445 1444 1444 1444 1444 1444 1444 1444 1443
1459 1459 1458 1458 1457 1457 1457 1456 1456 1456 1456 1456 1456 1455 1455 1454 1454 1454 1453 1453 1453 1453 1452 1452 1451 1450 1449 1448 1447 1446 1446 1445 1444 1443 1443 1442 1442 1443 1443 1442 1442 1442 1442
1457 1456 1456 1455 1455 1455 1454 1454 1454 1454 1454 1454 1454 1454 1453 1453 1453 1453 1452 1452 1451 1451 1451 1450 1450 1449 1448 1447 1446 1445 1444 1443 1443 1442 1441 1441 1441 1441 1441 1441 1441 1441 1441
1454 1454 1454 1453 1453 1452 1452 1452 1452 1452 1452 1452 1452 1452 1451 1452 1451 1451 1451 1450 1450 1450 1449 1449 1448 1447 1447 1445 1445 1444 1443 1442 1442 1441 1440 1440 1440 1440 1440 1440 1440 1440 1439